����������;��������(kWh)
2017-09-04 00:00;96,95
2017-09-04 00:15;99,2
2017-09-04 00:30;98,65
2017-09-04 00:45;103,9
2017-09-04 01:00;106,85
2017-09-04 01:15;107
2017-09-04 01:30;98,3
2017-09-04 01:45;96,6
2017-09-04 02:00;99,8
2017-09-04 02:15;95,3
2017-09-04 02:30;96,75
2017-09-04 02:45;97,65
2017-09-04 03:00;95,9
2017-09-04 03:15;98,25
2017-09-04 03:30;94,45
2017-09-04 03:45;96,4
2017-09-04 04:00;97,7
2017-09-04 04:15;96,8
2017-09-04 04:30;97,55
2017-09-04 04:45;94,55
2017-09-04 05:00;100
2017-09-04 05:15;96,9
2017-09-04 05:30;96,35
2017-09-04 05:45;96,75
2017-09-04 06:00;98,95
2017-09-04 06:15;101,75
2017-09-04 06:30;96,9
2017-09-04 06:45;100,15
2017-09-04 07:00;99,4
2017-09-04 07:15;102,9
2017-09-04 07:30;148
2017-09-04 07:45;167,55
2017-09-04 08:00;171,35
2017-09-04 08:15;145,85
2017-09-04 08:30;172,55
2017-09-04 08:45;168,5
2017-09-04 09:00;170,65
2017-09-04 09:15;183,2
2017-09-04 09:30;178,8
2017-09-04 09:45;197,9
2017-09-04 10:00;208,7
2017-09-04 10:15;218,45
2017-09-04 10:30;225,35
2017-09-04 10:45;233,75
2017-09-04 11:00;216,75
2017-09-04 11:15;221,1
2017-09-04 11:30;226,55
2017-09-04 11:45;231,8
2017-09-04 12:00;232,8
2017-09-04 12:15;246,3
2017-09-04 12:30;269,5
2017-09-04 12:45;308,1
2017-09-04 13:00;290,95
2017-09-04 13:15;246,35
2017-09-04 13:30;264,85
2017-09-04 13:45;247,85
2017-09-04 14:00;259,95
2017-09-04 14:15;244,5
2017-09-04 14:30;258,25
2017-09-04 14:45;255,25
2017-09-04 15:00;248,85
2017-09-04 15:15;234,95
2017-09-04 15:30;229,8
2017-09-04 15:45;223,15
2017-09-04 16:00;221,25
2017-09-04 16:15;200,35
2017-09-04 16:30;184,85
2017-09-04 16:45;184,5
2017-09-04 17:00;182,2
2017-09-04 17:15;178,35
2017-09-04 17:30;170,5
2017-09-04 17:45;171,55
2017-09-04 18:00;164,6
2017-09-04 18:15;160,8
2017-09-04 18:30;155,3
2017-09-04 18:45;154,45
2017-09-04 19:00;150,3
2017-09-04 19:15;155,85
2017-09-04 19:30;152,7
2017-09-04 19:45;146,3
2017-09-04 20:00;153,4
2017-09-04 20:15;150
2017-09-04 20:30;147,75
2017-09-04 20:45;143,85
2017-09-04 21:00;140,45
2017-09-04 21:15;141,9
2017-09-04 21:30;139,7
2017-09-04 21:45;134,15
2017-09-04 22:00;122,3
2017-09-04 22:15;128
2017-09-04 22:30;125,05
2017-09-04 22:45;119,05
2017-09-04 23:00;122,5
2017-09-04 23:15;108,75
2017-09-04 23:30;110,25
2017-09-04 23:45;109,25
2017-09-05 00:00;106,1
2017-09-05 00:15;107,45
2017-09-05 00:30;106,55
2017-09-05 00:45;107,35
2017-09-05 01:00;106,05
2017-09-05 01:15;101,65
2017-09-05 01:30;94,45
2017-09-05 01:45;88,75
2017-09-05 02:00;92,1
2017-09-05 02:15;90,55
2017-09-05 02:30;91,1
2017-09-05 02:45;89,45
2017-09-05 03:00;88,8
2017-09-05 03:15;92,1
2017-09-05 03:30;89,15
2017-09-05 03:45;88,65
2017-09-05 04:00;89,1
2017-09-05 04:15;86,75
2017-09-05 04:30;89,6
2017-09-05 04:45;87,1
2017-09-05 05:00;89,4
2017-09-05 05:15;89,6
2017-09-05 05:30;90,4
2017-09-05 05:45;91,2
2017-09-05 06:00;89,75
2017-09-05 06:15;92,9
2017-09-05 06:30;97,8
2017-09-05 06:45;105,6
2017-09-05 07:00;97,35
2017-09-05 07:15;105,25
2017-09-05 07:30;139,25
2017-09-05 07:45;155,65
2017-09-05 08:00;151
2017-09-05 08:15;137,85
2017-09-05 08:30;143,45
2017-09-05 08:45;159,8
2017-09-05 09:00;166,95
2017-09-05 09:15;171,75
2017-09-05 09:30;180,6
2017-09-05 09:45;186,95
2017-09-05 10:00;185,45
2017-09-05 10:15;197,65
2017-09-05 10:30;211,55
2017-09-05 10:45;202
2017-09-05 11:00;209,15
2017-09-05 11:15;218,95
2017-09-05 11:30;224,2
2017-09-05 11:45;227,3
2017-09-05 12:00;238,15
2017-09-05 12:15;244,45
2017-09-05 12:30;257,8
2017-09-05 12:45;246,4
2017-09-05 13:00;237,1
2017-09-05 13:15;225,5
2017-09-05 13:30;218,4
2017-09-05 13:45;231,9
2017-09-05 14:00;238,8
2017-09-05 14:15;236,8
2017-09-05 14:30;232,6
2017-09-05 14:45;230,5
2017-09-05 15:00;233,7
2017-09-05 15:15;226,65
2017-09-05 15:30;225,7
2017-09-05 15:45;222,5
2017-09-05 16:00;216,25
2017-09-05 16:15;215
2017-09-05 16:30;208,2
2017-09-05 16:45;210,9
2017-09-05 17:00;206,25
2017-09-05 17:15;198,1
2017-09-05 17:30;185,5
2017-09-05 17:45;188,55
2017-09-05 18:00;184,9
2017-09-05 18:15;173,2
2017-09-05 18:30;170,8
2017-09-05 18:45;158,7
2017-09-05 19:00;156,5
2017-09-05 19:15;146,95
2017-09-05 19:30;145,15
2017-09-05 19:45;145,25
2017-09-05 20:00;140,4
2017-09-05 20:15;136,05
2017-09-05 20:30;134,1
2017-09-05 20:45;132,2
2017-09-05 21:00;131,9
2017-09-05 21:15;127,15
2017-09-05 21:30;125,75
2017-09-05 21:45;118,65
2017-09-05 22:00;112,5
2017-09-05 22:15;117,5
2017-09-05 22:30;118,3
2017-09-05 22:45;107,95
2017-09-05 23:00;109,65
2017-09-05 23:15;98,8
2017-09-05 23:30;97,5
2017-09-05 23:45;99,15
2017-09-06 00:00;96
2017-09-06 00:15;95,3
2017-09-06 00:30;94,7
2017-09-06 00:45;92,9
2017-09-06 01:00;94,8
2017-09-06 01:15;92,05
2017-09-06 01:30;90,45
2017-09-06 01:45;89,8
2017-09-06 02:00;91,45
2017-09-06 02:15;90,55
2017-09-06 02:30;90,1
2017-09-06 02:45;90,1
2017-09-06 03:00;88,7
2017-09-06 03:15;89,9
2017-09-06 03:30;88,75
2017-09-06 03:45;89,75
2017-09-06 04:00;89,1
2017-09-06 04:15;89,5
2017-09-06 04:30;89,55
2017-09-06 04:45;88,65
2017-09-06 05:00;91,85
2017-09-06 05:15;89,8
2017-09-06 05:30;90,95
2017-09-06 05:45;88,8
2017-09-06 06:00;92,75
2017-09-06 06:15;93,05
2017-09-06 06:30;110,55
2017-09-06 06:45;114,55
2017-09-06 07:00;112,6
2017-09-06 07:15;110,5
2017-09-06 07:30;148,7
2017-09-06 07:45;168,55
2017-09-06 08:00;155,45
2017-09-06 08:15;144,55
2017-09-06 08:30;150,7
2017-09-06 08:45;158
2017-09-06 09:00;170,5
2017-09-06 09:15;177,7
2017-09-06 09:30;183,05
2017-09-06 09:45;181,6
2017-09-06 10:00;194,2
2017-09-06 10:15;198,55
2017-09-06 10:30;199,45
2017-09-06 10:45;206,65
2017-09-06 11:00;213,05
2017-09-06 11:15;216,05
2017-09-06 11:30;228,8
2017-09-06 11:45;236,85
2017-09-06 12:00;233,2
2017-09-06 12:15;245,3
2017-09-06 12:30;237,2
2017-09-06 12:45;246,95
2017-09-06 13:00;244,45
2017-09-06 13:15;226,3
2017-09-06 13:30;217,65
2017-09-06 13:45;229,35
2017-09-06 14:00;229,6
2017-09-06 14:15;220,8
2017-09-06 14:30;221,2
2017-09-06 14:45;212,3
2017-09-06 15:00;213
2017-09-06 15:15;218,2
2017-09-06 15:30;203,2
2017-09-06 15:45;206,6
2017-09-06 16:00;203,35
2017-09-06 16:15;200,15
2017-09-06 16:30;185,5
2017-09-06 16:45;184,75
2017-09-06 17:00;179,15
2017-09-06 17:15;174,85
2017-09-06 17:30;164,65
2017-09-06 17:45;171,2
2017-09-06 18:00;168,5
2017-09-06 18:15;152,35
2017-09-06 18:30;159,4
2017-09-06 18:45;150,65
2017-09-06 19:00;150,15
2017-09-06 19:15;136,8
2017-09-06 19:30;133,8
2017-09-06 19:45;136,2
2017-09-06 20:00;128
2017-09-06 20:15;121,45
2017-09-06 20:30;124,4
2017-09-06 20:45;122,4
2017-09-06 21:00;118,85
2017-09-06 21:15;117,35
2017-09-06 21:30;116
2017-09-06 21:45;108,7
2017-09-06 22:00;102,95
2017-09-06 22:15;109,1
2017-09-06 22:30;108,6
2017-09-06 22:45;103,15
2017-09-06 23:00;105,75
2017-09-06 23:15;94,05
2017-09-06 23:30;95,4
2017-09-06 23:45;94,75
2017-09-07 00:00;91,25
2017-09-07 00:15;92,4
2017-09-07 00:30;90,4
2017-09-07 00:45;91,75
2017-09-07 01:00;90,1
2017-09-07 01:15;86,95
2017-09-07 01:30;90,1
2017-09-07 01:45;88,25
2017-09-07 02:00;90,75
2017-09-07 02:15;86,35
2017-09-07 02:30;87,35
2017-09-07 02:45;89,25
2017-09-07 03:00;87,3
2017-09-07 03:15;89,6
2017-09-07 03:30;86,8
2017-09-07 03:45;90,35
2017-09-07 04:00;92,55
2017-09-07 04:15;91,1
2017-09-07 04:30;91,1
2017-09-07 04:45;91,1
2017-09-07 05:00;91,35
2017-09-07 05:15;93,3
2017-09-07 05:30;90,9
2017-09-07 05:45;89,9
2017-09-07 06:00;95,15
2017-09-07 06:15;92,35
2017-09-07 06:30;104,75
2017-09-07 06:45;109,25
2017-09-07 07:00;109,7
2017-09-07 07:15;113,75
2017-09-07 07:30;141
2017-09-07 07:45;156,95
2017-09-07 08:00;141,15
2017-09-07 08:15;131,85
2017-09-07 08:30;133,95
2017-09-07 08:45;145,45
2017-09-07 09:00;166,6
2017-09-07 09:15;169,4
2017-09-07 09:30;175,7
2017-09-07 09:45;179,4
2017-09-07 10:00;185,85
2017-09-07 10:15;192,15
2017-09-07 10:30;194,4
2017-09-07 10:45;199,1
2017-09-07 11:00;208,55
2017-09-07 11:15;205
2017-09-07 11:30;218,45
2017-09-07 11:45;220,7
2017-09-07 12:00;226,55
2017-09-07 12:15;237,85
2017-09-07 12:30;240,05
2017-09-07 12:45;241,3
2017-09-07 13:00;237,25
2017-09-07 13:15;214,65
2017-09-07 13:30;223,95
2017-09-07 13:45;220,4
2017-09-07 14:00;221,95
2017-09-07 14:15;216,95
2017-09-07 14:30;208
2017-09-07 14:45;207,1
2017-09-07 15:00;203,95
2017-09-07 15:15;200,65
2017-09-07 15:30;191,05
2017-09-07 15:45;178,35
2017-09-07 16:00;168,25
2017-09-07 16:15;163,8
2017-09-07 16:30;160,15
2017-09-07 16:45;160,3
2017-09-07 17:00;158,7
2017-09-07 17:15;150,5
2017-09-07 17:30;145,05
2017-09-07 17:45;146,4
2017-09-07 18:00;144,55
2017-09-07 18:15;135,85
2017-09-07 18:30;140,55
2017-09-07 18:45;141,5
2017-09-07 19:00;140,9
2017-09-07 19:15;137,9
2017-09-07 19:30;139,9
2017-09-07 19:45;132,05
2017-09-07 20:00;136,3
2017-09-07 20:15;126,45
2017-09-07 20:30;124,7
2017-09-07 20:45;124,7
2017-09-07 21:00;120,7
2017-09-07 21:15;115,8
2017-09-07 21:30;115,5
2017-09-07 21:45;113
2017-09-07 22:00;107,9
2017-09-07 22:15;114,25
2017-09-07 22:30;111,25
2017-09-07 22:45;104,95
2017-09-07 23:00;108,25
2017-09-07 23:15;100,7
2017-09-07 23:30;94,6
2017-09-07 23:45;93,05
2017-09-08 00:00;90,95
2017-09-08 00:15;91,15
2017-09-08 00:30;89,5
2017-09-08 00:45;90,2
2017-09-08 01:00;88,7
2017-09-08 01:15;87,25
2017-09-08 01:30;89,3
2017-09-08 01:45;85,8
2017-09-08 02:00;84
2017-09-08 02:15;82,1
2017-09-08 02:30;81,6
2017-09-08 02:45;82,95
2017-09-08 03:00;82,85
2017-09-08 03:15;84,85
2017-09-08 03:30;83,4
2017-09-08 03:45;81,45
2017-09-08 04:00;83,55
2017-09-08 04:15;81,05
2017-09-08 04:30;80,8
2017-09-08 04:45;82,8
2017-09-08 05:00;83,1
2017-09-08 05:15;83,15
2017-09-08 05:30;83,15
2017-09-08 05:45;81,2
2017-09-08 06:00;87
2017-09-08 06:15;85,2
2017-09-08 06:30;91,75
2017-09-08 06:45;100,85
2017-09-08 07:00;104,3
2017-09-08 07:15;106,05
2017-09-08 07:30;137,45
2017-09-08 07:45;157,95
2017-09-08 08:00;145,95
2017-09-08 08:15;122,95
2017-09-08 08:30;136,15
2017-09-08 08:45;136
2017-09-08 09:00;143,9
2017-09-08 09:15;162,7
2017-09-08 09:30;166,15
2017-09-08 09:45;163,5
2017-09-08 10:00;169,55
2017-09-08 10:15;171
2017-09-08 10:30;165,3
2017-09-08 10:45;177,4
2017-09-08 11:00;186,1
2017-09-08 11:15;181,05
2017-09-08 11:30;192,4
2017-09-08 11:45;196,1
2017-09-08 12:00;202,1
2017-09-08 12:15;215,85
2017-09-08 12:30;211,35
2017-09-08 12:45;211,95
2017-09-08 13:00;208,45
2017-09-08 13:15;201,25
2017-09-08 13:30;202,35
2017-09-08 13:45;199,35
2017-09-08 14:00;196,9
2017-09-08 14:15;203,5
2017-09-08 14:30;204,7
2017-09-08 14:45;197,85
2017-09-08 15:00;204,05
2017-09-08 15:15;195,2
2017-09-08 15:30;193,85
2017-09-08 15:45;187,85
2017-09-08 16:00;186,7
2017-09-08 16:15;185,25
2017-09-08 16:30;177,25
2017-09-08 16:45;176,9
2017-09-08 17:00;173,85
2017-09-08 17:15;168,8
2017-09-08 17:30;160,2
2017-09-08 17:45;162,6
2017-09-08 18:00;162,5
2017-09-08 18:15;156,85
2017-09-08 18:30;156,95
2017-09-08 18:45;144,2
2017-09-08 19:00;144,6
2017-09-08 19:15;144,35
2017-09-08 19:30;140,2
2017-09-08 19:45;139,3
2017-09-08 20:00;137,4
2017-09-08 20:15;133,4
2017-09-08 20:30;128,45
2017-09-08 20:45;127
2017-09-08 21:00;126,4
2017-09-08 21:15;121,2
2017-09-08 21:30;123,6
2017-09-08 21:45;120,25
2017-09-08 22:00;110,65
2017-09-08 22:15;115,2
2017-09-08 22:30;114,55
2017-09-08 22:45;108,8
2017-09-08 23:00;113,9
2017-09-08 23:15;102,2
2017-09-08 23:30;102,4
2017-09-08 23:45;103,65
2017-09-09 00:00;103,45
2017-09-09 00:15;92,2
2017-09-09 00:30;89,15
2017-09-09 00:45;88,35
2017-09-09 01:00;87,75
2017-09-09 01:15;85,9
2017-09-09 01:30;84,45
2017-09-09 01:45;86,6
2017-09-09 02:00;83,2
2017-09-09 02:15;84
2017-09-09 02:30;83,2
2017-09-09 02:45;83,9
2017-09-09 03:00;83,25
2017-09-09 03:15;82,95
2017-09-09 03:30;82,95
2017-09-09 03:45;82,65
2017-09-09 04:00;84
2017-09-09 04:15;82,3
2017-09-09 04:30;83,45
2017-09-09 04:45;83,85
2017-09-09 05:00;82,25
2017-09-09 05:15;84,2
2017-09-09 05:30;82,25
2017-09-09 05:45;83,5
2017-09-09 06:00;86,6
2017-09-09 06:15;87,6
2017-09-09 06:30;87
2017-09-09 06:45;85,15
2017-09-09 07:00;84,65
2017-09-09 07:15;83,55
2017-09-09 07:30;85,7
2017-09-09 07:45;140,05
2017-09-09 08:00;120,35
2017-09-09 08:15;102,6
2017-09-09 08:30;104,6
2017-09-09 08:45;105,45
2017-09-09 09:00;104,9
2017-09-09 09:15;101,4
2017-09-09 09:30;103,75
2017-09-09 09:45;104,75
2017-09-09 10:00;102,5
2017-09-09 10:15;108,15
2017-09-09 10:30;110,3
2017-09-09 10:45;110,25
2017-09-09 11:00;111,35
2017-09-09 11:15;113,85
2017-09-09 11:30;117,25
2017-09-09 11:45;118,65
2017-09-09 12:00;121,3
2017-09-09 12:15;124,4
2017-09-09 12:30;128,55
2017-09-09 12:45;127,25
2017-09-09 13:00;124,35
2017-09-09 13:15;108,2
2017-09-09 13:30;112,1
2017-09-09 13:45;110,5
2017-09-09 14:00;111,45
2017-09-09 14:15;110,35
2017-09-09 14:30;102,8
2017-09-09 14:45;108,6
2017-09-09 15:00;103,35
2017-09-09 15:15;105,45
2017-09-09 15:30;101,1
2017-09-09 15:45;102,15
2017-09-09 16:00;100,7
2017-09-09 16:15;98,8
2017-09-09 16:30;101,85
2017-09-09 16:45;106,6
2017-09-09 17:00;105,7
2017-09-09 17:15;99,45
2017-09-09 17:30;101,4
2017-09-09 17:45;103,15
2017-09-09 18:00;98,7
2017-09-09 18:15;96,9
2017-09-09 18:30;96,25
2017-09-09 18:45;95,5
2017-09-09 19:00;95,75
2017-09-09 19:15;95,35
2017-09-09 19:30;95,4
2017-09-09 19:45;102,4
2017-09-09 20:00;103,65
2017-09-09 20:15;107,05
2017-09-09 20:30;107,7
2017-09-09 20:45;106,1
2017-09-09 21:00;104,6
2017-09-09 21:15;104,8
2017-09-09 21:30;105,3
2017-09-09 21:45;102,7
2017-09-09 22:00;97,7
2017-09-09 22:15;105,9
2017-09-09 22:30;104,7
2017-09-09 22:45;96,05
2017-09-09 23:00;96,9
2017-09-09 23:15;86,1
2017-09-09 23:30;85,6
2017-09-09 23:45;85,85
2017-09-10 00:00;87
2017-09-10 00:15;87,5
2017-09-10 00:30;85,1
2017-09-10 00:45;85,8
2017-09-10 01:00;85,95
2017-09-10 01:15;85,6
2017-09-10 01:30;83,4
2017-09-10 01:45;83,55
2017-09-10 02:00;83,65
2017-09-10 02:15;82,5
2017-09-10 02:30;82,5
2017-09-10 02:45;82,9
2017-09-10 03:00;83,65
2017-09-10 03:15;84
2017-09-10 03:30;82,9
2017-09-10 03:45;82,4
2017-09-10 04:00;82,85
2017-09-10 04:15;82,55
2017-09-10 04:30;82,2
2017-09-10 04:45;83,85
2017-09-10 05:00;83,15
2017-09-10 05:15;82,25
2017-09-10 05:30;83
2017-09-10 05:45;82,45
2017-09-10 06:00;87,7
2017-09-10 06:15;85,6
2017-09-10 06:30;88,35
2017-09-10 06:45;87,35
2017-09-10 07:00;87,4
2017-09-10 07:15;87,75
2017-09-10 07:30;84
2017-09-10 07:45;83,35
2017-09-10 08:00;83,6
2017-09-10 08:15;84,9
2017-09-10 08:30;85,75
2017-09-10 08:45;83,45
2017-09-10 09:00;81,75
2017-09-10 09:15;81,25
2017-09-10 09:30;83,85
2017-09-10 09:45;83,05
2017-09-10 10:00;82,7
2017-09-10 10:15;84,25
2017-09-10 10:30;83,6
2017-09-10 10:45;85,5
2017-09-10 11:00;84,95
2017-09-10 11:15;84,8
2017-09-10 11:30;84,45
2017-09-10 11:45;86,3
2017-09-10 12:00;88,35
2017-09-10 12:15;85,95
2017-09-10 12:30;90,95
2017-09-10 12:45;97,5
2017-09-10 13:00;96,75
2017-09-10 13:15;94,25
2017-09-10 13:30;94,1
2017-09-10 13:45;94,65
2017-09-10 14:00;93,75
2017-09-10 14:15;93,4
2017-09-10 14:30;99,5
2017-09-10 14:45;98,2
2017-09-10 15:00;91,85
2017-09-10 15:15;95,5
2017-09-10 15:30;96,35
2017-09-10 15:45;95,75
2017-09-10 16:00;97,55
2017-09-10 16:15;98,75
2017-09-10 16:30;98,35
2017-09-10 16:45;100,75
2017-09-10 17:00;97,5
2017-09-10 17:15;104,05
2017-09-10 17:30;104,2
2017-09-10 17:45;102,4
2017-09-10 18:00;102,85
2017-09-10 18:15;101,5
2017-09-10 18:30;101,45
2017-09-10 18:45;100,5
2017-09-10 19:00;102,4
2017-09-10 19:15;107,2
2017-09-10 19:30;107
2017-09-10 19:45;105,4
2017-09-10 20:00;107,5
2017-09-10 20:15;108,8
2017-09-10 20:30;106,75
2017-09-10 20:45;103,75
2017-09-10 21:00;106,2
2017-09-10 21:15;99,45
2017-09-10 21:30;103,65
2017-09-10 21:45;96,5
2017-09-10 22:00;93
2017-09-10 22:15;100,95
2017-09-10 22:30;101,6
2017-09-10 22:45;98,4
2017-09-10 23:00;102,85
2017-09-10 23:15;91,25
2017-09-10 23:30;90,15
2017-09-10 23:45;90,1

